Flag Weather past 2 weeks in Jeddah, Saudi Arabia

Now
75 °F

Clear.


Feels Like: 77 °F
Forecast: 76 / 90 °F
Wind: 9 mph from North

Location: Jeddah King Abdul Aziz International Airport

Current Time: Nov 1, 2014 at 7:03:11 AM

Latest Report: Nov 1, 2014 at 6:00 AM


Visibility: 10 mi

Pressure: 29.86 "Hg

Humidity: 65%

Dew point: 63 °F

Location of JeddahLocation

Historic Weather in Jeddah — Graph

°F

Jeddah temperature yesterday

Maximum temperature yesterday: 91 °F (at 12:00 PM)
Minimum temperature yesterday: 75 °F (at 6:00 AM)
Average temperature yesterday: 83 °F

Past Weeks' High & Low Weather Summary

 TemperatureHumidityPressure
High99 °F (Oct 27, 12:00 PM)94% (Oct 29, 6:00 AM)29.92 "Hg (Oct 29, 6:00 AM)
Low73 °F (Oct 29, 6:00 AM)28% (Oct 30, 12:00 PM)29.74 "Hg (Oct 19, 2:00 PM)
Average85 °F60%29.83 "Hg
* Reported Oct 17 6:00 AM — Nov 1 6:00 AM, Jeddah, Weather by CustomWeather, © 2014

Note: Actual official high and low records may vary slightly from our data, if they occured in-between our weather recording intervals... More about our weather records

Advertising

Jeddah weather history for previous 24 hours

 ConditionsComfort  
Time TempWeatherWind HumidityBarometerVisibility
6:00 AM
Nov 1
75 °FClear.9 mph65%29.86 "Hg10 mi
5:00 AM75 °FClear.5 mph69%29.86 "Hg10 mi
4:00 AM77 °FClear.5 mph65%29.83 "Hg10 mi
3:00 AM77 °FClear.7 mph65%29.83 "Hg10 mi
2:00 AM77 °FClear.5 mph61%29.83 "Hg10 mi
1:00 AM79 °FClear.9 mph58%29.86 "Hg10 mi
12:00 AM79 °FClear.7 mph58%29.86 "Hg10 mi
11:00 PM
Oct 31
81 °FClear.9 mph54%29.86 "Hg10 mi
10:00 PM81 °FClear.9 mph54%29.86 "Hg10 mi
9:00 PM82 °FClear.14 mph51%29.86 "Hg10 mi
8:00 PM82 °FClear.16 mph51%29.86 "Hg10 mi
7:00 PM82 °FClear.14 mph51%29.83 "Hg10 mi
6:00 PM84 °FClear.14 mph45%29.83 "Hg10 mi
5:00 PM88 °FSunny.14 mph38%29.80 "Hg10 mi
4:00 PM88 °FSunny.16 mph35%29.80 "Hg10 mi
3:00 PM91 °FSunny.16 mph30%29.80 "Hg10 mi
2:00 PM91 °FSunny.17 mph28%29.80 "Hg10 mi
1:00 PM91 °FSunny.12 mph30%29.80 "Hg10 mi
12:00 PM91 °FSunny.15 mph30%29.83 "Hg10 mi
11:00 AM88 °FSunny.13 mph35%29.86 "Hg10 mi
10:00 AM86 °FSunny.15 mph38%29.86 "Hg10 mi
9:00 AM84 °FSunny.9 mph48%29.86 "Hg10 mi
8:00 AM81 °FSunny.5 mph48%29.86 "Hg10 mi
7:00 AM75 °FSunny.5 mph65%29.83 "Hg10 mi
Weather by CustomWeather, © 2014

See weather overviewHow to use our weather pages